User: anonymous   Login
Location: Unspecified
(0.0000°N, 0.0000°E)
Time: 01:48:04
(UTC+00:00)
Language:

LilacSat-2 - Orbit

View from above orbital plane
View from above orbital plane
View from above satellite
View from above satellite

Ground track
Ground track

The orbit data is extracted from the following two-line orbital elements,

1 40908U 15049K   18053.96386647 +.00000361 +00000-0 +23762-4 0  9990
2 40908 097.4676 058.7809 0017622 066.9267 293.3820 15.13412106134091
Epoch (UTC): 22 February 2018 23:07:58
Eccentricity: 0.0017622
inclination: 97.4676°
perigee height: 513 km
apogee height: 538 km
right ascension of ascending node: 58.7809°
argument of perigee: 66.9267°
revolutions per day: 15.13412106
mean anomaly at epoch: 293.3820°
orbit number at epoch: 13409

The dashed part of the orbit path shows where the satellite is in the earth's shadow,  

DLR